Weather History for PAWM - December, 2013

Change the Weather History Date:

Friday, December 27, 2013

  Actual Average (PAKK) Record (PAKK)
Temperature  
Mean Temperature -4 °F -  
Max Temperature 0 °F 8 °F 37 °F (2001)
Min Temperature -11 °F 0 °F -20 °F (1999)
Degree Days  
Heating Degree Days 70    
Moisture  
Dew Point -15 °F    
Average Humidity 62    
Maximum Humidity 68    
Minimum Humidity 56    
Precipitation  
Precipitation 0.00 in - - ()
Sea Level Pressure  
Sea Level Pressure 30.11 in    
Wind  
Wind Speed 9 mph (North)    
Max Wind Speed 12 mph    
Max Gust Speed -    
Visibility 10 miles    
Events      
Averages and records for this station are not official NWS values.
T = Trace of Precipitation, MM = Missing Value Source: NWS Daily Summary

Daily Weather History Graph

Daily Weather History Graph

Search for Another Location

Airport or City:

Trip Planner

Search our weather history database for the weather conditions in past years. The results will help you decide how hot, cold, wet, or windy it might be!

Date:

Astronomy

Dec. 27, 2013 Rise Set
Actual Time 11:58 AM AKST 3:51 PM AKST
Civil Twilight 10:35 AM AKST 5:14 PM AKST
Nautical Twilight 9:24 AM AKST 6:25 PM AKST
Astronomical Twilight 8:23 AM AKST 7:26 PM AKST
Moon 5:08 AM AKST (12/27) 1:37 PM AKST (12/27)
Length of Visible Light 6h 39m
Length of Day
3h 53m
Waning Crescent, 27% of the Moon is Illuminated
Dec 27
Waning Crescent
Jan 1
New
Jan 7
First Quarter
Jan 15
Full
Jan 23
Last Quarter

Hourly Weather History & Observations

Time (AKST) Temp. Windchill Dew Point Humidity Pressure Visibility Wind Dir Wind Speed Gust Speed Precip Events Conditions
12:58 AM -2.0 °F -17.7 °F -11.9 °F 63% 30.12 in 10.0 mi North 9.2 mph - N/A   Clear
1:58 AM -2.0 °F -17.7 °F -11.9 °F 63% 30.12 in 10.0 mi North 9.2 mph - N/A   Clear
2:58 AM -0.9 °F -15.3 °F -11.0 °F 62% 30.12 in 10.0 mi North 8.1 mph - N/A   Clear
3:58 AM -2.0 °F -17.7 °F -11.9 °F 63% 30.13 in 10.0 mi NNE 9.2 mph - N/A   Clear
4:58 AM -0.9 °F -16.4 °F -11.9 °F 60% 30.13 in 10.0 mi North 9.2 mph - N/A   Clear
5:58 AM -2.0 °F -18.7 °F -13.0 °F 60% 30.12 in 10.0 mi North 10.4 mph - N/A   Clear
6:58 AM -0.9 °F -18.3 °F -13.0 °F 57% 30.12 in 10.0 mi North 11.5 mph - N/A   Clear
7:58 AM -2.9 °F -19.8 °F -13.0 °F 62% 30.12 in 10.0 mi NNE 10.4 mph - N/A   Clear
8:58 AM -2.9 °F -19.8 °F -14.1 °F 59% 30.12 in 10.0 mi North 10.4 mph - N/A   Clear
9:58 AM -2.0 °F -18.7 °F -14.1 °F 57% 30.12 in 10.0 mi North 10.4 mph - N/A   Clear
10:58 AM -2.9 °F -17.7 °F -14.1 °F 59% 30.13 in 10.0 mi NNE 8.1 mph - N/A   Clear
11:58 AM -4.0 °F -17.8 °F -14.1 °F 62% 30.13 in 10.0 mi NNE 6.9 mph - N/A   Clear
12:58 PM -2.9 °F -15.0 °F -14.1 °F 59% 30.14 in 10.0 mi NNE 5.8 mph - N/A   Clear
1:58 PM -2.9 °F -17.7 °F -15.0 °F 56% 30.13 in 10.0 mi NNE 8.1 mph - N/A   Clear
2:58 PM -4.0 °F -16.3 °F -16.1 °F 56% 30.12 in 10.0 mi North 5.8 mph - N/A   Clear
3:58 PM -6.0 °F -20.1 °F -16.1 °F 62% 30.12 in 10.0 mi NNE 6.9 mph - N/A   Clear
4:58 PM -8.0 °F -25.0 °F -17.0 °F 65% 30.11 in 10.0 mi North 9.2 mph - N/A   Clear
5:58 PM -7.1 °F -23.9 °F -16.1 °F 65% 30.10 in 10.0 mi North 9.2 mph - N/A   Clear
6:58 PM -7.1 °F -22.8 °F -17.0 °F 62% 30.09 in 10.0 mi North 8.1 mph - N/A   Clear
7:58 PM -8.0 °F -25.0 °F -17.0 °F 65% 30.08 in 10.0 mi North 9.2 mph - N/A   Clear
8:58 PM -9.9 °F -29.6 °F -18.0 °F 68% 30.07 in 10.0 mi North 11.5 mph - N/A   Clear
9:58 PM -8.0 °F -23.9 °F -17.0 °F 65% 30.07 in 10.0 mi North 8.1 mph - N/A   Clear
10:58 PM -9.0 °F -26.4 °F -18.0 °F 65% 30.07 in 10.0 mi North 9.2 mph - N/A   Clear
11:58 PM -11.0 °F -29.9 °F -18.9 °F 68% 30.05 in 10.0 mi North 10.4 mph - N/A   Clear